Location: Newark
(25.6108°S, 54.5803°W)
Time: 22:58:38
(UTC+00:00)

Tiros 1 - Pass Details

Date: 28 October 2020
Orbit: 630 x 664 km, 48.4° (Epoch: 29 November)

Event Time Altitude Azimuth Distance (km) Brightness Sun altitude
Rises 01:58:18 0° 223° (SW) 3,008 11.3 -46.1°
Enters shadow 01:59:22 - 221° (SW) 2,599 10.9 -46.2°
Reaches altitude 10° 02:00:42 10° 219° (SW) 2,088 - -46.4°
Maximum altitude 02:05:30 66° 137° (SE) 720 - -46.9°
Drops below altitude 10° 02:10:12 10° 54° (NE) 2,050 - -47.4°
Sets 02:12:32 0° 51° (NE) 2,949 - -47.6°
